| time (UTC) | temp C | wind direction | speed KPH | gust KPH | rain 1hr cm | rain 24hr cm | rain mn cm | humidity % | barometer mb |
| 20260506134032 | 13 | 165 | 4.8 | 16.1 | 0.00 | 0.00 | 0.00 | 49 | 1014.7 |
| 20260506133035 | 13 | 175 | 4.8 | 14.5 | 0.00 | 0.00 | 0.00 | 55 | 1014.7 |
| 20260506132033 | 13 | 150 | 3.2 | 8.0 | 0.00 | 0.00 | 0.00 | 51 | 1014.7 |
| 20260506131032 | 13 | 181 | 3.2 | 11.3 | 0.00 | 0.00 | 0.00 | 50 | 1014.9 |
| 20260506130033 | 13 | 119 | 6.4 | 16.1 | 0.00 | 0.00 | 0.00 | 57 | 1014.8 |
| 20260506124033 | 13 | 130 | 3.2 | 11.3 | 0.00 | 0.00 | 0.00 | 49 | 1014.9 |
| 20260506123034 | 13 | 170 | 6.4 | 16.1 | 0.00 | 0.00 | 0.00 | 49 | 1014.9 |
| 20260506122032 | 13 | 165 | 3.2 | 11.3 | 0.00 | 0.00 | 0.00 | 50 | 1014.9 |
| 20260506121032 | 13 | 111 | 4.8 | 14.5 | 0.00 | 0.00 | 0.00 | 52 | 1015.1 |
| 20260506120032 | 13 | 91 | 3.2 | 8.0 | 0.00 | 0.00 | 0.00 | 54 | 1015.2 |
| 20260506115033 | 13 | 219 | 3.2 | 9.7 | 0.00 | 0.00 | 0.00 | 51 | 1015.1 |
| 20260506114032 | 12 | 123 | 3.2 | 11.3 | 0.00 | 0.00 | 0.00 | 55 | 1015.3 |
| 20260506113036 | 13 | 5 | 6.4 | 16.1 | 0.00 | 0.00 | 0.00 | 51 | 1015.3 |
| 20260506111034 | 13 | 73 | 6.4 | 17.7 | 0.00 | 0.00 | 0.00 | 51 | 1015.4 |
| 20260506110032 | 13 | 121 | 4.8 | 17.7 | 0.00 | 0.00 | 0.00 | 51 | 1015.5 |
| 20260506104032 | 12 | 107 | 3.2 | 9.7 | 0.00 | 0.00 | 0.00 | 58 | 1015.7 |
| 20260506103031 | 12 | 127 | 4.8 | 11.3 | 0.00 | 0.00 | 0.00 | 53 | 1015.9 |
| 20260506102031 | 11 | 151 | 4.8 | 12.9 | 0.00 | 0.00 | 0.00 | 60 | 1015.8 |
| 20260506101036 | 10 | 150 | 4.8 | 12.9 | 0.00 | 0.00 | 0.00 | 59 | 1015.9 |
| 20260506095032 | 10 | 130 | 4.8 | 12.9 | 0.00 | 0.00 | 0.00 | 60 | 1016.2 |
| 20260506094042 | 10 | 142 | 6.4 | 16.1 | 0.00 | 0.00 | 0.00 | 60 | 1016.2 |
| 20260506093031 | 10 | 119 | 3.2 | 11.3 | 0.00 | 0.00 | 0.00 | 60 | 1016.3 |
| 20260506092031 | 9 | 355 | 3.2 | 9.7 | 0.00 | 0.00 | 0.00 | 63 | 1016.3 |
| 20260506091040 | 8 | 140 | 3.2 | 12.9 | 0.00 | 0.00 | 0.00 | 63 | 1016.3 |
| 20260506090031 | 8 | 86 | 3.2 | 11.3 | 0.00 | 0.00 | 0.00 | 64 | 1016.4 |
| 20260506085033 | 8 | 18 | 4.8 | 14.5 | 0.00 | 0.00 | 0.00 | 64 | 1016.5 |
| 20260506084031 | 8 | 173 | 1.6 | 6.4 | 0.00 | 0.00 | 0.00 | 68 | 1016.5 |
| 20260506083032 | 8 | 70 | 1.6 | 4.8 | 0.00 | 0.00 | 0.00 | 71 | 1016.6 |
| 20260506081033 | 7 | 77 | 1.6 | 4.8 | 0.00 | 0.00 | 0.00 | 71 | 1016.7 |
| 20260506073034 | 6 | 65 | 1.6 | 4.8 | 0.00 | 0.00 | 0.00 | 74 | 1016.6 |
| 20260506072037 | 6 | 49 | 1.6 | 6.4 | 0.00 | 0.00 | 0.00 | 74 | 1016.7 |
| 20260506071033 | 6 | 5 | 1.6 | 6.4 | 0.00 | 0.00 | 0.00 | 76 | 1016.7 |
| 20260506062033 | 5 | 74 | 1.6 | 4.8 | 0.00 | 0.00 | 0.00 | 77 | 1016.4 |
| 20260506061031 | 5 | 64 | 1.6 | 6.4 | 0.00 | 0.00 | 0.00 | 78 | 1016.4 |
| 20260506051031 | 5 | 9 | 0.0 | 3.2 | 0.00 | 0.00 | 0.00 | 85 | 1016.4 |
| 20260506045031 | 3 | 16 | 0.0 | 3.2 | 0.00 | 0.00 | 0.00 | 87 | 1016.4 |
| 20260506043030 | 3 | 16 | 0.0 | 3.2 | 0.00 | 0.00 | 0.00 | 88 | 1016.3 |
| 20260506042034 | 3 | 15 | 0.0 | 3.2 | 0.00 | 0.00 | 0.00 | 88 | 1016.2 |
| 20260506041031 | 3 | 10 | 0.0 | 4.8 | 0.00 | 0.00 | 0.00 | 88 | 1016.3 |
| 20260506040035 | 3 | 9 | 0.0 | 1.6 | 0.00 | 0.00 | 0.00 | 88 | 1016.3 |
| 20260506035030 | 3 | 9 | 0.0 | 3.2 | 0.00 | 0.00 | 0.00 | 88 | 1016.4 |
| 20260506033031 | 2 | 9 | 0.0 | 3.2 | 0.00 | 0.00 | 0.00 | 88 | 1016.4 |
| 20260506032032 | 2 | 9 | 0.0 | 0.0 | 0.00 | 0.00 | 0.00 | 87 | 1016.4 |
| 20260506031035 | 2 | 9 | 0.0 | 1.6 | 0.00 | 0.00 | 0.00 | 87 | 1016.5 |
| 20260506030036 | 2 | 9 | 0.0 | 1.6 | 0.00 | 0.00 | 0.00 | 86 | 1016.5 |
| 20260506025038 | 2 | 9 | 0.0 | 1.6 | 0.00 | 0.00 | 0.00 | 86 | 1016.6 |
| 20260506023030 | 3 | 9 | 0.0 | 0.0 | 0.00 | 0.00 | 0.00 | 85 | 1016.6 |
| 20260506022029 | 3 | 9 | 0.0 | 1.6 | 0.00 | 0.00 | 0.00 | 85 | 1016.7 |
| 20260506020030 | 3 | 9 | 0.0 | 3.2 | 0.00 | 0.00 | 0.00 | 85 | 1016.6 |
| 20260506015035 | 3 | 51 | 0.0 | 3.2 | 0.00 | 0.00 | 0.00 | 86 | 1016.6 |
| 20260506012029 | 2 | 26 | 0.0 | 3.2 | 0.00 | 0.00 | 0.00 | 85 | 1016.7 |
| 20260506011029 | 3 | 82 | 0.0 | 1.6 | 0.00 | 0.00 | 0.00 | 84 | 1016.8 |
| 20260506010032 | 3 | 82 | 0.0 | 1.6 | 0.00 | 0.00 | 0.00 | 83 | 1016.7 |
| 20260506005032 | 3 | 82 | 0.0 | 1.6 | 0.00 | 0.00 | 0.00 | 82 | 1016.7 |
| 20260506004038 | 3 | 82 | 0.0 | 1.6 | 0.00 | 0.00 | 0.00 | 81 | 1016.7 |
| 20260506003026 | 3 | 82 | 0.0 | 3.2 | 0.00 | 0.00 | 0.00 | 81 | 1016.7 |
| 20260506002028 | 3 | 82 | 0.0 | 1.6 | 0.00 | 0.00 | 0.00 | 80 | 1016.8 |
| 20260506001032 | 4 | 82 | 0.0 | 1.6 | 0.00 | 0.00 | 0.00 | 79 | 1016.8 |
| 20260505235034 | 5 | 82 | 0.0 | 1.6 | 0.00 | 0.00 | 0.00 | 78 | 1016.8 |
| 20260505234028 | 5 | 82 | 0.0 | 3.2 | 0.00 | 0.00 | 0.00 | 78 | 1016.9 |
| 20260505231035 | 6 | 82 | 0.0 | 4.8 | 0.00 | 0.00 | 0.00 | 76 | 1016.9 |
| 20260505230026 | 6 | 107 | 1.6 | 4.8 | 0.00 | 0.00 | 0.00 | 76 | 1016.9 |
| 20260505225030 | 6 | 145 | 1.6 | 4.8 | 0.00 | 0.00 | 0.00 | 77 | 1017.0 |
| 20260505223020 | 6 | 111 | 1.6 | 6.4 | 0.00 | 0.00 | 0.00 | 77 | 1016.9 |
| 20260505222024 | 6 | 57 | 1.6 | 6.4 | 0.00 | 0.00 | 0.00 | 77 | 1017.0 |
| 20260505221027 | 6 | 86 | 1.6 | 11.3 | 0.00 | 0.00 | 0.00 | 77 | 1017.0 |
| 20260505220023 | 6 | 124 | 3.2 | 11.3 | 0.00 | 0.00 | 0.00 | 77 | 1016.9 |
| 20260505215024 | 6 | 73 | 1.6 | 3.2 | 0.00 | 0.00 | 0.00 | 78 | 1016.9 |
| 20260505214012 | 6 | 86 | 1.6 | 6.4 | 0.00 | 0.00 | 0.00 | 78 | 1016.9 |
| 20260505213011 | 6 | 84 | 1.6 | 4.8 | 0.00 | 0.00 | 0.00 | 77 | 1016.9 |
| 20260505212012 | 6 | 76 | 1.6 | 4.8 | 0.00 | 0.00 | 0.00 | 76 | 1016.8 |
| 20260505211011 | 6 | 63 | 1.6 | 4.8 | 0.00 | 0.00 | 0.00 | 75 | 1016.8 |
| 20260505210013 | 7 | 68 | 1.6 | 6.4 | 0.00 | 0.00 | 0.00 | 74 | 1016.8 |
| 20260505205012 | 7 | 107 | 1.6 | 6.4 | 0.00 | 0.00 | 0.00 | 73 | 1016.8 |
| 20260505204015 | 7 | 88 | 1.6 | 4.8 | 0.00 | 0.00 | 0.00 | 73 | 1016.7 |
| 20260505202013 | 7 | 106 | 1.6 | 4.8 | 0.00 | 0.00 | 0.00 | 72 | 1016.6 |
| 20260505201011 | 8 | 83 | 1.6 | 9.7 | 0.00 | 0.00 | 0.00 | 71 | 1016.6 |
| 20260505200012 | 8 | 31 | 3.2 | 6.4 | 0.00 | 0.00 | 0.00 | 71 | 1016.6 |
| 20260505195024 | 8 | 63 | 3.2 | 6.4 | 0.00 | 0.00 | 0.00 | 72 | 1016.5 |
| 20260505194026 | 8 | 96 | 3.2 | 8.0 | 0.00 | 0.00 | 0.00 | 72 | 1016.3 |
| 20260505192005 | 8 | 87 | 1.6 | 4.8 | 0.00 | 0.00 | 0.00 | 73 | 1016.1 |
| 20260505191006 | 9 | 71 | 1.6 | 6.4 | 0.00 | 0.00 | 0.00 | 72 | 1016.1 |
| 20260505190007 | 9 | 172 | 1.6 | 6.4 | 0.00 | 0.00 | 0.00 | 72 | 1015.9 |
| 20260505185006 | 9 | 78 | 1.6 | 8.0 | 0.00 | 0.00 | 0.00 | 71 | 1015.9 |
| 20260505184007 | 9 | 325 | 1.6 | 6.4 | 0.00 | 0.00 | 0.00 | 70 | 1015.9 |
| 20260505182006 | 10 | 108 | 3.2 | 8.0 | 0.00 | 0.00 | 0.00 | 70 | 1015.8 |
| 20260505181005 | 10 | 5 | 1.6 | 9.7 | 0.00 | 0.00 | 0.00 | 71 | 1015.8 |
| 20260505180002 | 10 | 126 | 3.2 | 9.7 | 0.00 | 0.00 | 0.00 | 70 | 1015.7 |
| 20260505175003 | 10 | 70 | 3.2 | 14.5 | 0.00 | 0.00 | 0.00 | 68 | 1015.7 |
| 20260505174004 | 10 | 132 | 3.2 | 14.5 | 0.00 | 0.00 | 0.00 | 69 | 1015.8 |
| 20260505173004 | 10 | 97 | 3.2 | 12.9 | 0.00 | 0.00 | 0.00 | 69 | 1015.7 |
| 20260505172003 | 10 | 82 | 3.2 | 9.7 | 0.00 | 0.00 | 0.00 | 71 | 1015.7 |
| 20260505171004 | 10 | 189 | 3.2 | 9.7 | 0.00 | 0.00 | 0.00 | 68 | 1015.7 |
| 20260505170006 | 10 | 74 | 3.2 | 12.9 | 0.00 | 0.00 | 0.00 | 69 | 1015.7 |
| 20260505165004 | 10 | 81 | 4.8 | 12.9 | 0.00 | 0.00 | 0.00 | 69 | 1015.6 |
| 20260505164003 | 11 | 173 | 3.2 | 12.9 | 0.00 | 0.00 | 0.00 | 69 | 1015.4 |
| 20260505162002 | 11 | 143 | 3.2 | 11.3 | 0.00 | 0.00 | 0.00 | 68 | 1015.3 |
| 20260505161002 | 11 | 93 | 4.8 | 16.1 | 0.00 | 0.00 | 0.00 | 68 | 1015.3 |
| 20260505153003 | 11 | 133 | 4.8 | 16.1 | 0.00 | 0.00 | 0.00 | 72 | 1015.2 |
| 20260505151002 | 11 | 217 | 3.2 | 12.9 | 0.00 | 0.00 | 0.00 | 73 | 1015.1 |